SL-12 R/B(AUX MOTOR)

Satellite information

Favourite Embed

Satellite Type and Status

ROCKET BODYIN ORBIT

Key statistics

Satellite SL-12 R/B(AUX MOTOR) at a glance.

Uptime

12993

Days in orbit

Revolutions

≈ 4.3

Per day

Orbit

HEO

HEO

Inclination

65.3

Latest

Satellite identification and parameters

Extended collection of information and parameters for SL-12 R/B(AUX MOTOR).

Object identification

Identified? True

Debris? False

Object name: SL-12 R/B(AUX MOTOR)

International designator: 1990-045F

Object number (NORAD): 20630

Object ID (CCSDS): 20630

Country: COMMONWEALTH OF INDEPENDENT STATES (CIS)

Current information (Y/N): Y

RCS size: MEDIUM

Orbital parameters

Period: 333.284 minutes

Inclination: 65.2693 deg

SMA: 15923.422 km

Apoapsis: 18508.569 km

Periapsis: 582.005 km

RAAN: 307.786 deg

Eccentricy: 0.56289923

Argument of periapsis: 52.8225 deg

Mean anomaly: 346.439 deg

Mean motion: 4.32064077 rev/day

Mean motion (dot): 0.00000153 rev/day2

B* drag term: 0.00068931254 1/REarth

Two-line elements (TLE)

Creation date: Dec. 13, 2025, 5:47 p.m.

Reference frame: TEME

Reference center: EARTH

Epoch: Dec. 13, 2025, 7:06 a.m. UTC

TLE line 0: 0 SL-12 R/B(AUX MOTOR)

TLE line 1: 1 20630U 90045F 25347.29604052 .00000153 00000-0 68931-3 0 9997

TLE line 2: 2 20630 65.2693 307.7860 5628992 52.8225 346.4390 4.32064077557986

Live tracking on map

Real-time ground track for satellite SL-12 R/B(AUX MOTOR).

In-orbit conjunctions

There are no conjunctions computed for SL-12 R/B(AUX MOTOR), at the moment. Check back to stay up to date, as we update our databases every day.

Go to all conjunctions

Associated space launch

GLONASS navigation satellites

SL-12 R/B(AUX MOTOR) was lifted into orbit during the mission ‘Proton | Uragan 36 to 38’, on board a Proton space rocket.

The launch took place on May 19, 1990, 8:32 a.m. from 200/40.

For more information about the launch, click the button.

Launch to space Proton | Uragan 36 to 38
Proton | Uragan 36 to 38

Agency: N/A

Status: Launch Successful

Launch date: May 19, 1990, 8:32 a.m. UTC

Rocket: Proton

Launch pad: 200/40

Location: Baikonur Cosmodrome, Republic of Kazakhstan

...

Latest news about this satellite

There are no fresh news available about this satellite. Check back as we update our databases every day.


Newsletter sign-up

Weekly statistics, charts and insights to help you stay on top of the space industry.